sat.trackr.live / text

‹ back to catalog

STARLINK-6337

NORAD 56528 · 2023-065AB

PAYLOAD ACTIVE UNKNOWN

§ Identity

Operator
Country
US
Launch date
2023-05-14
Launch site
AFETR
Launch vehicle
Mass (kg)
RCS (m²)

Purposes: comms

External: N2YO · Heavens-Above · Gunter

§ Orbital elements

Epoch: 2026-05-25T00:44:30.419232Z

Period
94.27 min
Inclination
43.0018°
Eccentricity
0.0001061
Mean motion
15.27574147 rev/d
Perigee alt
482.3 km
Apogee alt
483.8 km
Semi-major
6,861.2 km
B*
2.2019e-5
RAAN
144.8612°
Arg perigee
271.9665°
Mean anomaly
88.1065°
Rev number
16,823

§ Raw data

STARLINK-63371 56528U 23065AB  26145.03090763  .00000344  00000+0  22019-4 0  99962 56528  43.0018 144.8612 0001061 271.9665  88.1065 15.27574147168235

JSON: /api/v1/satellites/56528 · /tle

For live sub-satellite position, see the globe view (requires WebGL).

§ Visibility from observer

Set your observer location to see the next 7 days of passes ≥ 10°. The values pass through the URL so the page stays shareable.

No JS? Fill the form by hand. The geolocation button needs JavaScript.